Location: Unspecified
(58.9933°N, 5.6375°E)
Time: 20:57:01
(UTC+02:00)

Cosmos 2058 - Visible Passes

Search period start: 27 September 2016 00:00
Search period end: 07 October 2016 00:00
Orbit: 563 x 587 km, 82.5° (Epoch: 25 September)

Date Brightness Start Highest point End Pass type
(mag) Time Alt. Az. Time Alt. Az. Time Alt. Az.
27 Sep 4.3 20:08:52 10° N 20:12:00 20° ENE 20:15:08 10° ESE visible
27 Sep 3.0 21:45:21 10° NNW 21:49:28 75° W 21:51:27 30° S visible
27 Sep 5.7 23:23:50 10° NW 23:25:42 13° W 23:27:35 10° WSW visible
28 Sep 4.1 20:12:18 10° N 20:15:43 24° ENE 20:19:00 10° ESE visible
28 Sep 3.3 21:48:57 10° NNW 21:53:02 60° W 21:55:15 25° S visible
28 Sep 5.9 23:28:21 10° WNW 23:29:07 10° WNW 23:29:53 10° W visible
29 Sep 3.9 20:15:46 10° N 20:19:24 29° ENE 20:22:51 11° ESE visible
29 Sep 3.8 21:52:35 10° NNW 21:56:33 48° W 21:59:06 20° SSW visible
30 Sep 3.6 20:19:15 10° N 20:23:03 34° ENE 20:26:44 11° SE visible
30 Sep 4.2 21:56:14 10° NNW 22:00:06 38° W 22:03:00 16° SSW visible
01 Oct 3.3 20:22:45 10° N 20:26:42 42° ENE 20:30:38 10° SE visible
01 Oct 4.6 21:59:55 10° NNW 22:03:35 31° W 22:06:57 12° SSW visible
02 Oct 3.1 20:26:17 10° N 20:30:20 51° ENE 20:34:22 10° SSE visible
02 Oct 5.0 22:03:38 10° NNW 22:07:04 26° W 22:10:31 10° SW visible
03 Oct 2.9 20:29:50 10° N 20:33:57 63° ENE 20:38:03 10° SSE visible
03 Oct 5.3 22:07:24 10° NW 22:10:32 21° W 22:13:41 10° SW visible
04 Oct 2.8 20:33:23 10° NNW 20:37:32 79° ENE 20:41:41 10° SSE visible
04 Oct 5.6 22:11:13 10° NW 22:13:59 18° W 22:16:46 10° SW visible
05 Oct 2.9 20:36:58 10° NNW 20:41:07 84° WSW 20:45:16 10° S visible
05 Oct 5.9 22:15:09 10° NW 22:17:25 15° W 22:19:43 10° WSW visible
06 Oct 3.2 20:40:33 10° NNW 20:44:40 68° W 20:48:47 10° S visible
06 Oct 6.0 22:19:18 10° WNW 22:20:50 12° WNW 22:22:24 10° W visible
